Find Starlink 35856

NORAD ID: 67013 Int'l Des: 2025-293 Owner: SPXS Country: US Constellation: starlink operational
LEOCIRCULAR

Current View

Loading 3D Globe...

About Starlink 35856

Description loading...

Upcoming Passes

Passes for default location (London). Set your location on the main map for personalized predictions.

Altitude History

Loading altitude history...

Two-Line Element Set

1 67013U 25293L 26146.05724441 .00002302 00000-0 20066-3 0 9998
2 67013 70.0007 259.5054 0003764 264.7227 95.3502 14.98335322 26476
Epoch: May 26, 2026 • Age: 13 hours

Current Status

Altitude 575.7 km
Velocity 7.58 km/s
Sub-Earth Point 26.30°N, 39.42°W
Launch Date Dec 10, 2025
Age 0.4 years
Type internet

Technical Details

Classification Payload
Mass 575.00 kg
Dry Mass 530.00 kg
Total Mass 575.00 kg
Length 0.30 m
Diameter 4.10 m
Span 29.00 m
Shape Box + pan
Manufacturer SPXS
Bus Type Starlink V2MO
Phase Status In Orbit
Owner/State SPXS/US

Most Searched